GEFSNE_prec_meanprec_006.txt.gz
QPF
0.00 0.00 0.00 0.00 0.00 0.00 0.00 0.01 0.02 0.02 0.00 0.00 0.00 0.00 0.00 0.00 0.00 0.01 0.03 0.03 0.01 0.01 0.01 0.00 0.00 0.00 0.00 0.00 0.00 0.00 0.01 0.01 0.02 0.03 0.04 0.06 0.07 0.09
0.00 0.00 0.01 0.00 0.00 0.00 0.00 0.01 0.01 0.02 0.02 0.00 0.00 0.00 0.01 0.01 0.01 0.02 0.03 0.02 0.01 0.01 0.00 0.00 0.01 0.01 0.01 0.01 0.01 0.01 0.01 0.00 0.00 0.01 0.02 0.03 0.04 0.07
0.00 0.01 0.01 0.01 0.01 0.01 0.00 0.01 0.01 0.03 0.04 0.02 0.01 0.01 0.03 0.04 0.04 0.06 0.07 0.06 0.05 0.02 0.01 0.00 0.00 0.01 0.01 0.02 0.02 0.02 0.01 0.01 0.01 0.00 0.00 0.01 0.02 0.03
0.01 0.01 0.01 0.01 0.01 0.01 0.01 0.01 0.02 0.04 0.06 0.05 0.04 0.04 0.05 0.06 0.07 0.06 0.03 0.02 0.03 0.01 0.01 0.01 0.01 0.01 0.02 0.03 0.03 0.02 0.01 0.00 0.00 0.00 0.00 0.00 0.00 0.01
0.01 0.02 0.02 0.02 0.01 0.01 0.01 0.01 0.03 0.04 0.07 0.08 0.07 0.06 0.05 0.04 0.03 0.02 0.02 0.03 0.01 0.01 0.01 0.00 0.00 0.00 0.01 0.01 0.01 0.01 0.01 0.00 0.00 0.00 0.00 0.00 0.00 0.00
0.01 0.02 0.01 0.01 0.01 0.01 0.01 0.02 0.05 0.07 0.08 0.07 0.05 0.03 0.02 0.01 0.02 0.02 0.02 0.02 0.02 0.01 0.01 0.01 0.00 0.00 0.00 0.00 0.00 0.00 0.00 0.00 0.00 0.00 0.00 0.00 0.00 0.00
0.01 0.01 0.01 0.01 0.01 0.01 0.02 0.04 0.06 0.08 0.07 0.06 0.04 0.02 0.01 0.01 0.02 0.03 0.04 0.03 0.03 0.02 0.01 0.00 0.00 0.00 0.00 0.00 0.00 0.00 0.00 0.00 0.01 0.00 0.00 0.00 0.00 0.00
0.01 0.00 0.00 0.00 0.00 0.01 0.01 0.03 0.04 0.05 0.06 0.04 0.02 0.01 0.01 0.02 0.05 0.07 0.06 0.06 0.04 0.02 0.01 0.01 0.00 0.00 0.00 0.00 0.01 0.01 0.02 0.01 0.01 0.00 0.00 0.00 0.00 0.00
0.01 0.01 0.01 0.00 0.01 0.01 0.02 0.02 0.02 0.02 0.03 0.04 0.03 0.02 0.03 0.05 0.11 0.11 0.09 0.08 0.05 0.03 0.02 0.01 0.00 0.00 0.00 0.01 0.02 0.04 0.03 0.03 0.03 0.01 0.00 0.00 0.00 0.00
0.01 0.01 0.01 0.01 0.01 0.02 0.02 0.01 0.01 0.01 0.01 0.02 0.05 0.04 0.04 0.06 0.11 0.13 0.10 0.07 0.04 0.02 0.03 0.02 0.01 0.01 0.01 0.03 0.06 0.06 0.05 0.09 0.08 0.02 0.01 0.00 0.00 0.00
0.01 0.01 0.02 0.01 0.02 0.03 0.02 0.01 0.01 0.01 0.02 0.07 0.10 0.11 0.11 0.11 0.12 0.11 0.08 0.05 0.04 0.04 0.05 0.05 0.04 0.05 0.05 0.07 0.09 0.09 0.11 0.20 0.19 0.09 0.03 0.01 0.01 0.01
0.01 0.02 0.03 0.03 0.03 0.03 0.01 0.01 0.01 0.01 0.05 0.08 0.15 0.22 0.20 0.13 0.10 0.09 0.06 0.05 0.06 0.07 0.08 0.09 0.09 0.09 0.09 0.11 0.11 0.10 0.14 0.28 0.30 0.18 0.07 0.04 0.03 0.01
0.02 0.02 0.02 0.03 0.02 0.01 0.01 0.01 0.02 0.03 0.06 0.10 0.17 0.22 0.18 0.08 0.04 0.04 0.03 0.04 0.05 0.08 0.08 0.10 0.11 0.11 0.14 0.13 0.10 0.13 0.20 0.29 0.29 0.20 0.10 0.06 0.04 0.02
0.02 0.02 0.03 0.03 0.02 0.01 0.02 0.02 0.04 0.05 0.07 0.11 0.16 0.15 0.10 0.04 0.04 0.04 0.03 0.03 0.04 0.05 0.07 0.09 0.10 0.07 0.07 0.07 0.10 0.16 0.23 0.26 0.21 0.12 0.06 0.07 0.05 0.04
0.02 0.04 0.04 0.04 0.04 0.04 0.05 0.04 0.04 0.05 0.07 0.10 0.12 0.11 0.08 0.05 0.03 0.02 0.02 0.02 0.03 0.04 0.06 0.07 0.06 0.05 0.05 0.05 0.08 0.13 0.18 0.20 0.13 0.07 0.06 0.07 0.05 0.05
0.02 0.05 0.08 0.10 0.10 0.09 0.08 0.07 0.06 0.06 0.08 0.09 0.08 0.06 0.05 0.04 0.02 0.01 0.01 0.02 0.03 0.06 0.07 0.06 0.05 0.08 0.10 0.09 0.08 0.07 0.07 0.12 0.13 0.10 0.10 0.10 0.11 0.13
0.02 0.04 0.08 0.11 0.11 0.09 0.08 0.07 0.06 0.06 0.07 0.06 0.05 0.04 0.03 0.02 0.02 0.02 0.02 0.03 0.04 0.06 0.07 0.06 0.07 0.08 0.07 0.06 0.06 0.06 0.07 0.09 0.11 0.08 0.06 0.09 0.16 0.18
0.02 0.05 0.10 0.12 0.12 0.11 0.09 0.07 0.05 0.05 0.05 0.05 0.04 0.03 0.03 0.03 0.03 0.03 0.03 0.03 0.04 0.04 0.05 0.05 0.06 0.05 0.04 0.05 0.07 0.06 0.07 0.08 0.07 0.04 0.03 0.07 0.12 0.14
0.02 0.04 0.08 0.10 0.10 0.09 0.08 0.06 0.05 0.04 0.03 0.03 0.03 0.03 0.03 0.03 0.03 0.03 0.03 0.03 0.04 0.04 0.04 0.05 0.04 0.03 0.02 0.05 0.09 0.07 0.06 0.06 0.06 0.07 0.06 0.07 0.09 0.09
0.03 0.05 0.06 0.07 0.08 0.08 0.07 0.05 0.03 0.02 0.02 0.02 0.03 0.03 0.03 0.03 0.04 0.04 0.04 0.04 0.03 0.03 0.03 0.03 0.02 0.02 0.01 0.01 0.03 0.05 0.05 0.06 0.08 0.07 0.07 0.07 0.06 0.05
0.04 0.05 0.06 0.05 0.05 0.06 0.06 0.06 0.05 0.04 0.03 0.03 0.03 0.04 0.04 0.03 0.03 0.03 0.03 0.02 0.02 0.01 0.01 0.01 0.01 0.00 0.00 0.00 0.00 0.01 0.01 0.02 0.04 0.03 0.03 0.03 0.02 0.02
0.04 0.05 0.06 0.05 0.04 0.03 0.03 0.04 0.04 0.04 0.03 0.03 0.04 0.04 0.04 0.04 0.03 0.03 0.02 0.02 0.02 0.01 0.01 0.00 0.00 0.00 0.00 0.00 0.00 0.01 0.01 0.00 0.00 0.00 0.00 0.00 0.00 0.00
0.04 0.04 0.04 0.04 0.04 0.03 0.02 0.02 0.02 0.03 0.03 0.03 0.04 0.04 0.04 0.03 0.02 0.02 0.02 0.02 0.01 0.01 0.00 0.00 0.00 0.00 0.00 0.00 0.00 0.01 0.01 0.00 0.00 0.00 0.00 0.00 0.00 0.00

GEFSNE_prec_meanprec_012.txt.gz
QPF
0.00 0.00 0.01 0.00 0.01 0.01 0.02 0.02 0.02 0.02 0.01 0.00 0.00 0.00 0.00 0.00 0.00 0.00 0.00 0.01 0.02 0.02 0.01 0.00 0.00 0.00 0.00 0.00 0.00 0.00 0.00 0.00 0.01 0.01 0.02 0.04 0.07 0.10
0.00 0.01 0.01 0.01 0.02 0.03 0.04 0.04 0.03 0.04 0.03 0.01 0.00 0.00 0.00 0.00 0.00 0.01 0.02 0.02 0.03 0.02 0.01 0.01 0.01 0.00 0.00 0.00 0.00 0.00 0.00 0.00 0.00 0.00 0.00 0.01 0.03 0.06
0.01 0.02 0.03 0.04 0.05 0.05 0.05 0.04 0.04 0.04 0.04 0.02 0.00 0.01 0.02 0.03 0.03 0.04 0.04 0.05 0.06 0.05 0.04 0.03 0.02 0.01 0.00 0.00 0.00 0.00 0.00 0.00 0.00 0.00 0.00 0.00 0.01 0.02
0.02 0.03 0.04 0.04 0.06 0.05 0.05 0.04 0.04 0.04 0.05 0.04 0.03 0.03 0.04 0.04 0.05 0.05 0.03 0.03 0.06 0.04 0.03 0.02 0.01 0.01 0.00 0.00 0.00 0.00 0.00 0.00 0.00 0.00 0.00 0.01 0.01 0.01
0.02 0.03 0.03 0.04 0.04 0.04 0.04 0.03 0.02 0.02 0.04 0.05 0.05 0.05 0.05 0.04 0.05 0.05 0.05 0.07 0.04 0.02 0.01 0.01 0.01 0.00 0.00 0.00 0.00 0.00 0.00 0.00 0.00 0.00 0.00 0.00 0.00 0.00
0.01 0.02 0.02 0.02 0.02 0.02 0.02 0.02 0.02 0.02 0.04 0.06 0.06 0.05 0.04 0.04 0.06 0.05 0.05 0.05 0.05 0.02 0.01 0.01 0.01 0.00 0.00 0.00 0.00 0.00 0.00 0.00 0.00 0.00 0.00 0.00 0.00 0.00
0.01 0.01 0.01 0.01 0.01 0.01 0.01 0.01 0.02 0.03 0.04 0.05 0.04 0.04 0.03 0.03 0.04 0.04 0.03 0.02 0.02 0.01 0.02 0.01 0.01 0.01 0.01 0.01 0.00 0.00 0.00 0.00 0.00 0.00 0.00 0.00 0.00 0.00
0.01 0.01 0.01 0.01 0.01 0.01 0.01 0.02 0.03 0.04 0.04 0.05 0.04 0.03 0.02 0.02 0.03 0.03 0.04 0.04 0.04 0.04 0.04 0.03 0.02 0.02 0.01 0.02 0.02 0.01 0.00 0.00 0.00 0.00 0.00 0.00 0.00 0.00
0.02 0.02 0.01 0.01 0.01 0.02 0.02 0.02 0.02 0.03 0.03 0.05 0.04 0.02 0.02 0.02 0.04 0.04 0.05 0.07 0.08 0.08 0.08 0.06 0.03 0.03 0.02 0.02 0.02 0.01 0.00 0.00 0.00 0.00 0.00 0.00 0.00 0.00
0.02 0.02 0.02 0.02 0.02 0.02 0.01 0.01 0.01 0.01 0.01 0.02 0.03 0.03 0.03 0.03 0.04 0.05 0.07 0.09 0.09 0.07 0.08 0.08 0.04 0.03 0.02 0.02 0.03 0.02 0.00 0.00 0.00 0.00 0.00 0.00 0.00 0.00
0.01 0.01 0.01 0.02 0.02 0.03 0.02 0.01 0.01 0.01 0.01 0.01 0.02 0.04 0.06 0.08 0.08 0.08 0.10 0.11 0.10 0.08 0.09 0.11 0.08 0.06 0.02 0.01 0.01 0.02 0.01 0.01 0.00 0.00 0.00 0.00 0.00 0.00
0.00 0.01 0.02 0.02 0.02 0.02 0.01 0.01 0.01 0.01 0.02 0.03 0.06 0.11 0.15 0.19 0.17 0.12 0.11 0.12 0.11 0.12 0.12 0.13 0.09 0.05 0.02 0.02 0.02 0.02 0.02 0.03 0.03 0.02 0.00 0.00 0.00 0.00
0.01 0.01 0.02 0.03 0.02 0.02 0.02 0.02 0.02 0.02 0.04 0.07 0.11 0.15 0.17 0.17 0.14 0.11 0.10 0.11 0.13 0.15 0.14 0.12 0.08 0.05 0.05 0.06 0.05 0.05 0.06 0.08 0.11 0.10 0.05 0.02 0.01 0.01
0.01 0.02 0.03 0.04 0.04 0.04 0.04 0.04 0.04 0.06 0.09 0.11 0.13 0.13 0.11 0.10 0.08 0.07 0.07 0.08 0.11 0.13 0.11 0.08 0.05 0.04 0.05 0.06 0.07 0.10 0.15 0.22 0.28 0.23 0.14 0.09 0.04 0.02
0.01 0.04 0.06 0.07 0.08 0.08 0.08 0.08 0.08 0.09 0.09 0.10 0.11 0.09 0.06 0.05 0.04 0.04 0.05 0.07 0.09 0.08 0.06 0.04 0.03 0.04 0.06 0.09 0.13 0.20 0.26 0.38 0.40 0.30 0.18 0.11 0.06 0.02
0.01 0.05 0.09 0.11 0.11 0.12 0.12 0.11 0.09 0.09 0.09 0.08 0.06 0.04 0.03 0.03 0.03 0.04 0.06 0.07 0.08 0.08 0.06 0.04 0.04 0.05 0.08 0.13 0.20 0.25 0.27 0.34 0.36 0.24 0.16 0.12 0.08 0.03
0.02 0.04 0.06 0.08 0.08 0.08 0.09 0.09 0.08 0.07 0.06 0.03 0.02 0.02 0.02 0.03 0.04 0.05 0.06 0.07 0.08 0.09 0.07 0.06 0.05 0.06 0.07 0.11 0.14 0.15 0.15 0.18 0.20 0.16 0.11 0.11 0.13 0.09
0.02 0.04 0.06 0.08 0.09 0.07 0.06 0.06 0.04 0.04 0.03 0.02 0.02 0.03 0.04 0.05 0.05 0.06 0.06 0.06 0.07 0.07 0.06 0.05 0.04 0.04 0.03 0.05 0.09 0.08 0.08 0.10 0.10 0.07 0.05 0.08 0.14 0.14
0.02 0.03 0.05 0.07 0.08 0.06 0.05 0.04 0.04 0.04 0.03 0.02 0.02 0.03 0.05 0.05 0.06 0.06 0.06 0.05 0.05 0.05 0.04 0.03 0.03 0.04 0.02 0.03 0.10 0.11 0.08 0.08 0.07 0.06 0.04 0.04 0.09 0.15
0.02 0.03 0.04 0.05 0.06 0.05 0.04 0.04 0.04 0.04 0.04 0.03 0.03 0.04 0.05 0.06 0.06 0.05 0.05 0.05 0.04 0.03 0.03 0.03 0.05 0.05 0.02 0.02 0.07 0.13 0.13 0.10 0.08 0.06 0.05 0.04 0.07 0.11
0.03 0.03 0.04 0.04 0.04 0.04 0.04 0.04 0.04 0.04 0.05 0.05 0.05 0.05 0.06 0.06 0.06 0.04 0.04 0.03 0.03 0.02 0.02 0.02 0.03 0.03 0.02 0.01 0.02 0.06 0.10 0.12 0.10 0.08 0.05 0.04 0.04 0.05
0.03 0.03 0.03 0.03 0.03 0.04 0.04 0.05 0.05 0.05 0.05 0.05 0.06 0.07 0.07 0.07 0.06 0.05 0.05 0.04 0.03 0.02 0.02 0.02 0.02 0.02 0.01 0.01 0.01 0.02 0.02 0.03 0.03 0.04 0.04 0.03 0.03 0.03
0.02 0.02 0.02 0.02 0.02 0.03 0.04 0.04 0.04 0.05 0.05 0.06 0.07 0.08 0.07 0.06 0.06 0.04 0.03 0.02 0.01 0.01 0.01 0.01 0.01 0.01 0.01 0.01 0.01 0.01 0.01 0.01 0.00 0.01 0.01 0.01 0.01 0.01

GEFSNE_prec_meanprec_018.txt.gz
QPF
0.00 0.00 0.00 0.00 0.00 0.00 0.00 0.01 0.01 0.01 0.00 0.00 0.00 0.00 0.00 0.00 0.00 0.00 0.00 0.00 0.01 0.01 0.01 0.02 0.01 0.01 0.01 0.01 0.01 0.01 0.01 0.01 0.00 0.00 0.00 0.01 0.01 0.02
0.00 0.00 0.00 0.00 0.00 0.00 0.00 0.01 0.01 0.01 0.01 0.00 0.00 0.00 0.00 0.00 0.00 0.00 0.00 0.00 0.01 0.01 0.01 0.02 0.02 0.02 0.02 0.02 0.01 0.01 0.01 0.01 0.00 0.00 0.00 0.00 0.01 0.01
0.00 0.00 0.00 0.00 0.00 0.00 0.00 0.00 0.00 0.01 0.01 0.00 0.00 0.00 0.00 0.00 0.00 0.00 0.00 0.00 0.00 0.01 0.02 0.03 0.04 0.04 0.03 0.03 0.03 0.02 0.02 0.01 0.01 0.00 0.00 0.00 0.00 0.01
0.00 0.00 0.00 0.00 0.00 0.00 0.00 0.00 0.00 0.00 0.00 0.00 0.00 0.00 0.00 0.00 0.00 0.00 0.00 0.00 0.01 0.02 0.04 0.05 0.05 0.05 0.04 0.03 0.03 0.02 0.01 0.01 0.01 0.00 0.00 0.01 0.01 0.01
0.00 0.00 0.00 0.00 0.00 0.00 0.00 0.00 0.00 0.00 0.00 0.00 0.00 0.00 0.00 0.00 0.00 0.00 0.01 0.02 0.03 0.04 0.05 0.05 0.05 0.04 0.03 0.02 0.01 0.01 0.00 0.00 0.00 0.00 0.00 0.00 0.01 0.01
0.00 0.00 0.00 0.00 0.00 0.01 0.00 0.00 0.00 0.00 0.00 0.01 0.01 0.00 0.00 0.00 0.01 0.01 0.02 0.02 0.03 0.04 0.04 0.04 0.03 0.02 0.01 0.00 0.00 0.00 0.00 0.00 0.00 0.00 0.00 0.00 0.00 0.00
0.00 0.00 0.00 0.01 0.02 0.02 0.01 0.01 0.02 0.02 0.02 0.02 0.02 0.01 0.01 0.01 0.01 0.01 0.01 0.00 0.00 0.00 0.01 0.01 0.01 0.00 0.00 0.01 0.00 0.00 0.00 0.00 0.00 0.00 0.00 0.00 0.00 0.00
0.00 0.00 0.01 0.01 0.01 0.01 0.02 0.02 0.03 0.03 0.03 0.03 0.02 0.02 0.01 0.01 0.01 0.01 0.01 0.01 0.00 0.00 0.00 0.00 0.00 0.00 0.00 0.01 0.02 0.02 0.02 0.02 0.01 0.00 0.00 0.00 0.00 0.00
0.00 0.00 0.00 0.00 0.00 0.01 0.01 0.01 0.01 0.02 0.03 0.03 0.03 0.01 0.01 0.01 0.01 0.02 0.02 0.02 0.01 0.00 0.01 0.01 0.00 0.01 0.01 0.03 0.05 0.05 0.04 0.03 0.03 0.01 0.00 0.00 0.00 0.00
0.00 0.00 0.00 0.00 0.01 0.01 0.01 0.00 0.00 0.00 0.01 0.01 0.01 0.01 0.01 0.02 0.03 0.04 0.04 0.04 0.03 0.01 0.03 0.04 0.02 0.02 0.02 0.04 0.06 0.06 0.05 0.04 0.03 0.02 0.01 0.00 0.00 0.00
0.00 0.00 0.00 0.01 0.01 0.01 0.01 0.01 0.01 0.01 0.01 0.02 0.03 0.04 0.05 0.06 0.08 0.09 0.09 0.09 0.07 0.04 0.05 0.07 0.06 0.04 0.03 0.03 0.04 0.05 0.04 0.03 0.03 0.02 0.01 0.01 0.00 0.00
0.00 0.00 0.01 0.01 0.01 0.01 0.01 0.03 0.03 0.02 0.02 0.03 0.04 0.05 0.06 0.08 0.09 0.09 0.09 0.09 0.08 0.09 0.08 0.08 0.06 0.04 0.03 0.02 0.02 0.02 0.02 0.02 0.02 0.01 0.01 0.00 0.00 0.00
0.00 0.00 0.01 0.01 0.01 0.02 0.03 0.04 0.05 0.05 0.04 0.04 0.04 0.04 0.04 0.05 0.05 0.04 0.04 0.05 0.06 0.08 0.08 0.06 0.05 0.04 0.03 0.03 0.02 0.02 0.01 0.01 0.01 0.01 0.01 0.00 0.00 0.00
0.00 0.01 0.01 0.02 0.02 0.03 0.03 0.05 0.06 0.06 0.03 0.03 0.02 0.02 0.03 0.03 0.03 0.03 0.03 0.03 0.04 0.05 0.04 0.04 0.04 0.04 0.04 0.03 0.03 0.02 0.03 0.04 0.05 0.04 0.03 0.02 0.01 0.01
0.01 0.01 0.02 0.03 0.03 0.03 0.04 0.05 0.05 0.03 0.02 0.02 0.02 0.03 0.03 0.03 0.03 0.04 0.04 0.04 0.05 0.05 0.05 0.05 0.05 0.04 0.04 0.04 0.05 0.05 0.06 0.09 0.11 0.10 0.08 0.05 0.02 0.02
0.00 0.01 0.02 0.03 0.03 0.02 0.03 0.03 0.02 0.02 0.02 0.02 0.03 0.04 0.03 0.03 0.03 0.04 0.05 0.05 0.05 0.05 0.05 0.05 0.06 0.06 0.06 0.07 0.08 0.09 0.10 0.14 0.17 0.15 0.13 0.10 0.06 0.03
0.00 0.00 0.01 0.02 0.02 0.02 0.01 0.01 0.01 0.02 0.02 0.03 0.05 0.06 0.04 0.04 0.04 0.04 0.04 0.04 0.04 0.04 0.05 0.04 0.04 0.04 0.04 0.06 0.08 0.11 0.13 0.17 0.20 0.18 0.15 0.15 0.13 0.07
0.00 0.01 0.01 0.02 0.03 0.03 0.02 0.02 0.02 0.02 0.03 0.04 0.05 0.05 0.04 0.03 0.04 0.04 0.03 0.02 0.02 0.02 0.03 0.03 0.03 0.02 0.01 0.02 0.08 0.11 0.14 0.20 0.22 0.18 0.14 0.14 0.15 0.10
0.00 0.01 0.02 0.03 0.03 0.03 0.03 0.03 0.03 0.03 0.04 0.04 0.04 0.04 0.03 0.03 0.03 0.02 0.02 0.01 0.02 0.02 0.02 0.02 0.01 0.01 0.01 0.02 0.06 0.11 0.14 0.18 0.18 0.15 0.12 0.10 0.13 0.12
0.01 0.02 0.03 0.03 0.03 0.04 0.04 0.03 0.04 0.04 0.04 0.04 0.04 0.04 0.03 0.02 0.02 0.02 0.02 0.02 0.02 0.02 0.01 0.01 0.01 0.01 0.01 0.02 0.05 0.10 0.14 0.11 0.08 0.08 0.08 0.08 0.11 0.12
0.02 0.02 0.03 0.03 0.03 0.04 0.04 0.03 0.03 0.04 0.04 0.04 0.04 0.04 0.03 0.03 0.02 0.02 0.02 0.03 0.02 0.01 0.01 0.01 0.01 0.01 0.01 0.01 0.03 0.06 0.09 0.09 0.06 0.05 0.05 0.06 0.07 0.06
0.02 0.03 0.03 0.03 0.03 0.02 0.03 0.02 0.03 0.03 0.03 0.04 0.04 0.04 0.03 0.02 0.02 0.02 0.02 0.02 0.02 0.01 0.01 0.01 0.01 0.01 0.02 0.02 0.03 0.05 0.06 0.07 0.07 0.07 0.05 0.03 0.02 0.02
0.03 0.04 0.03 0.03 0.02 0.02 0.02 0.02 0.02 0.02 0.02 0.02 0.02 0.02 0.02 0.02 0.02 0.01 0.01 0.01 0.01 0.00 0.00 0.00 0.01 0.01 0.01 0.01 0.02 0.04 0.04 0.04 0.04 0.04 0.05 0.04 0.02 0.02

GEFSNE_prec_meanprec_024.txt.gz
QPF
0.00 0.00 0.00 0.00 0.00 0.00 0.00 0.00 0.00 0.00 0.00 0.00 0.00 0.00 0.00 0.00 0.00 0.00 0.00 0.00 0.00 0.00 0.00 0.00 0.00 0.00 0.00 0.01 0.01 0.01 0.01 0.01 0.01 0.01 0.01 0.01 0.01 0.01
0.00 0.00 0.00 0.00 0.00 0.00 0.00 0.00 0.00 0.00 0.00 0.00 0.00 0.00 0.00 0.00 0.00 0.00 0.00 0.00 0.00 0.00 0.00 0.00 0.00 0.00 0.00 0.01 0.01 0.01 0.01 0.02 0.02 0.02 0.02 0.01 0.01 0.01
0.00 0.00 0.00 0.00 0.00 0.00 0.00 0.00 0.00 0.00 0.00 0.00 0.00 0.00 0.00 0.00 0.00 0.00 0.00 0.00 0.00 0.00 0.00 0.00 0.01 0.01 0.01 0.02 0.02 0.03 0.03 0.04 0.04 0.04 0.04 0.03 0.02 0.01
0.00 0.00 0.00 0.00 0.00 0.00 0.00 0.00 0.00 0.00 0.00 0.00 0.00 0.00 0.00 0.00 0.00 0.00 0.00 0.00 0.00 0.00 0.01 0.02 0.02 0.03 0.04 0.04 0.04 0.04 0.04 0.04 0.05 0.05 0.05 0.05 0.04 0.02
0.00 0.00 0.00 0.00 0.00 0.00 0.00 0.00 0.00 0.00 0.00 0.00 0.00 0.00 0.00 0.00 0.00 0.00 0.00 0.00 0.00 0.01 0.01 0.02 0.03 0.03 0.03 0.03 0.03 0.04 0.03 0.03 0.03 0.03 0.04 0.05 0.04 0.03
0.00 0.00 0.00 0.00 0.00 0.00 0.00 0.00 0.00 0.01 0.01 0.01 0.01 0.01 0.01 0.00 0.01 0.01 0.01 0.00 0.00 0.00 0.00 0.01 0.01 0.02 0.02 0.02 0.02 0.03 0.03 0.04 0.04 0.03 0.02 0.02 0.02 0.01
0.00 0.00 0.00 0.00 0.00 0.00 0.01 0.01 0.01 0.01 0.01 0.02 0.02 0.01 0.01 0.01 0.01 0.01 0.01 0.00 0.00 0.00 0.00 0.00 0.00 0.00 0.00 0.01 0.01 0.01 0.01 0.01 0.02 0.02 0.01 0.01 0.00 0.00
0.00 0.00 0.00 0.00 0.00 0.00 0.01 0.01 0.02 0.02 0.02 0.02 0.03 0.03 0.02 0.01 0.01 0.02 0.01 0.01 0.01 0.00 0.00 0.00 0.00 0.00 0.00 0.00 0.00 0.00 0.00 0.00 0.00 0.00 0.00 0.00 0.00 0.00
0.00 0.00 0.00 0.00 0.00 0.00 0.00 0.01 0.01 0.01 0.02 0.03 0.04 0.03 0.02 0.02 0.03 0.04 0.03 0.03 0.02 0.01 0.02 0.03 0.01 0.00 0.00 0.00 0.00 0.00 0.00 0.00 0.00 0.00 0.00 0.00 0.00 0.00
0.00 0.00 0.00 0.00 0.00 0.01 0.01 0.00 0.00 0.00 0.01 0.02 0.03 0.03 0.03 0.03 0.05 0.05 0.05 0.04 0.03 0.01 0.03 0.05 0.02 0.01 0.00 0.00 0.00 0.00 0.00 0.00 0.00 0.00 0.00 0.00 0.00 0.00
0.00 0.00 0.00 0.00 0.01 0.01 0.01 0.01 0.01 0.00 0.01 0.02 0.04 0.04 0.05 0.05 0.06 0.05 0.06 0.06 0.04 0.02 0.04 0.06 0.05 0.02 0.01 0.01 0.01 0.01 0.01 0.01 0.01 0.01 0.01 0.01 0.01 0.00
0.00 0.00 0.00 0.00 0.01 0.01 0.01 0.02 0.03 0.02 0.02 0.02 0.03 0.03 0.03 0.04 0.05 0.05 0.06 0.06 0.06 0.06 0.06 0.07 0.06 0.04 0.02 0.01 0.01 0.01 0.02 0.02 0.02 0.02 0.02 0.02 0.02 0.01
0.00 0.00 0.00 0.01 0.01 0.01 0.02 0.03 0.04 0.04 0.03 0.03 0.03 0.03 0.03 0.03 0.04 0.04 0.05 0.07 0.07 0.07 0.06 0.06 0.04 0.04 0.03 0.02 0.01 0.01 0.01 0.02 0.02 0.02 0.02 0.02 0.03 0.02
0.00 0.00 0.01 0.01 0.01 0.01 0.02 0.02 0.03 0.03 0.02 0.03 0.04 0.05 0.05 0.04 0.04 0.04 0.04 0.05 0.06 0.07 0.06 0.05 0.05 0.05 0.05 0.03 0.02 0.02 0.02 0.02 0.02 0.02 0.02 0.02 0.02 0.02
0.00 0.00 0.01 0.01 0.01 0.02 0.02 0.02 0.02 0.03 0.03 0.05 0.07 0.07 0.05 0.04 0.03 0.02 0.02 0.03 0.03 0.04 0.05 0.05 0.05 0.05 0.06 0.05 0.05 0.04 0.03 0.04 0.05 0.05 0.04 0.03 0.02 0.02
0.00 0.00 0.01 0.01 0.02 0.02 0.02 0.02 0.03 0.04 0.05 0.06 0.06 0.05 0.04 0.04 0.03 0.02 0.01 0.01 0.02 0.03 0.04 0.05 0.06 0.06 0.07 0.08 0.07 0.07 0.07 0.07 0.08 0.08 0.07 0.06 0.04 0.02
0.00 0.00 0.00 0.01 0.02 0.02 0.02 0.02 0.04 0.05 0.05 0.04 0.03 0.03 0.03 0.03 0.02 0.02 0.01 0.01 0.02 0.03 0.04 0.05 0.06 0.05 0.05 0.06 0.08 0.08 0.08 0.09 0.11 0.12 0.10 0.10 0.09 0.05
0.00 0.00 0.01 0.02 0.03 0.03 0.03 0.04 0.05 0.05 0.04 0.04 0.03 0.02 0.03 0.02 0.02 0.02 0.01 0.01 0.02 0.03 0.04 0.05 0.05 0.04 0.04 0.03 0.08 0.10 0.10 0.13 0.15 0.13 0.09 0.10 0.11 0.09
0.01 0.01 0.02 0.03 0.03 0.03 0.03 0.05 0.05 0.04 0.03 0.03 0.03 0.03 0.03 0.02 0.01 0.01 0.01 0.01 0.02 0.02 0.03 0.03 0.03 0.02 0.02 0.03 0.08 0.14 0.15 0.15 0.15 0.13 0.09 0.09 0.13 0.12
0.01 0.02 0.02 0.03 0.04 0.03 0.03 0.04 0.04 0.03 0.02 0.02 0.03 0.03 0.02 0.01 0.01 0.01 0.01 0.01 0.01 0.02 0.02 0.03 0.03 0.02 0.02 0.03 0.09 0.15 0.18 0.13 0.10 0.10 0.11 0.11 0.14 0.11
0.02 0.02 0.02 0.03 0.03 0.03 0.03 0.03 0.03 0.02 0.02 0.02 0.02 0.02 0.02 0.01 0.01 0.01 0.01 0.01 0.01 0.01 0.02 0.03 0.04 0.04 0.01 0.01 0.06 0.10 0.15 0.18 0.14 0.13 0.13 0.12 0.09 0.05
0.03 0.03 0.02 0.03 0.03 0.03 0.02 0.02 0.02 0.01 0.01 0.01 0.01 0.01 0.01 0.01 0.00 0.00 0.00 0.00 0.01 0.01 0.02 0.03 0.03 0.03 0.01 0.02 0.06 0.10 0.13 0.14 0.15 0.16 0.14 0.08 0.02 0.02
0.04 0.03 0.02 0.02 0.02 0.03 0.02 0.01 0.01 0.00 0.00 0.00 0.00 0.00 0.00 0.00 0.00 0.00 0.00 0.00 0.00 0.00 0.01 0.01 0.01 0.01 0.01 0.02 0.03 0.05 0.05 0.04 0.03 0.03 0.06 0.06 0.04 0.05

GEFSNE_prec_meanprec_030.txt.gz
QPF
0.00 0.00 0.00 0.00 0.00 0.00 0.00 0.00 0.00 0.00 0.00 0.00 0.00 0.00 0.00 0.00 0.00 0.00 0.00 0.00 0.00 0.00 0.00 0.00 0.00 0.00 0.00 0.00 0.00 0.00 0.01 0.01 0.01 0.01 0.01 0.02 0.03 0.04
0.00 0.00 0.00 0.00 0.00 0.00 0.00 0.00 0.00 0.01 0.01 0.00 0.00 0.00 0.00 0.00 0.00 0.00 0.00 0.00 0.00 0.00 0.00 0.00 0.00 0.00 0.01 0.01 0.01 0.01 0.01 0.01 0.01 0.01 0.01 0.01 0.02 0.03
0.00 0.00 0.00 0.00 0.00 0.00 0.00 0.00 0.00 0.01 0.01 0.00 0.00 0.00 0.01 0.01 0.01 0.01 0.01 0.01 0.00 0.00 0.00 0.00 0.01 0.01 0.01 0.01 0.01 0.01 0.01 0.02 0.02 0.02 0.02 0.02 0.02 0.02
0.00 0.00 0.00 0.00 0.00 0.00 0.00 0.00 0.01 0.01 0.01 0.01 0.01 0.01 0.01 0.01 0.01 0.02 0.01 0.01 0.01 0.00 0.00 0.00 0.00 0.01 0.01 0.01 0.02 0.02 0.01 0.01 0.01 0.02 0.02 0.03 0.03 0.04
0.00 0.00 0.00 0.00 0.00 0.00 0.01 0.01 0.01 0.01 0.02 0.02 0.02 0.01 0.01 0.01 0.02 0.02 0.01 0.02 0.01 0.00 0.00 0.00 0.00 0.00 0.00 0.01 0.01 0.01 0.00 0.00 0.01 0.01 0.02 0.03 0.04 0.06
0.00 0.00 0.00 0.00 0.00 0.01 0.01 0.02 0.02 0.03 0.03 0.03 0.02 0.02 0.01 0.01 0.03 0.03 0.02 0.02 0.01 0.01 0.01 0.01 0.01 0.00 0.00 0.00 0.00 0.01 0.01 0.01 0.01 0.02 0.03 0.03 0.04 0.04
0.00 0.00 0.00 0.00 0.00 0.01 0.01 0.03 0.04 0.05 0.04 0.04 0.03 0.02 0.02 0.02 0.03 0.03 0.03 0.02 0.01 0.01 0.02 0.02 0.02 0.02 0.02 0.01 0.01 0.00 0.00 0.01 0.01 0.02 0.03 0.03 0.03 0.03
0.00 0.00 0.00 0.00 0.00 0.00 0.01 0.01 0.03 0.04 0.04 0.04 0.05 0.04 0.03 0.04 0.04 0.04 0.03 0.03 0.02 0.02 0.03 0.02 0.02 0.02 0.03 0.03 0.02 0.01 0.00 0.00 0.01 0.01 0.02 0.04 0.03 0.02
0.00 0.01 0.00 0.00 0.01 0.02 0.01 0.01 0.01 0.02 0.03 0.04 0.06 0.06 0.06 0.06 0.06 0.05 0.05 0.04 0.04 0.03 0.05 0.04 0.03 0.03 0.03 0.02 0.01 0.00 0.00 0.00 0.00 0.01 0.01 0.02 0.03 0.03
0.01 0.01 0.01 0.01 0.02 0.01 0.01 0.01 0.01 0.01 0.02 0.03 0.04 0.04 0.04 0.04 0.04 0.05 0.04 0.04 0.03 0.04 0.06 0.05 0.03 0.03 0.02 0.03 0.02 0.00 0.00 0.00 0.00 0.00 0.00 0.00 0.01 0.02
0.00 0.01 0.01 0.02 0.01 0.00 0.01 0.01 0.01 0.01 0.01 0.01 0.02 0.02 0.02 0.03 0.03 0.04 0.05 0.04 0.03 0.03 0.05 0.05 0.04 0.03 0.03 0.05 0.04 0.02 0.01 0.01 0.01 0.00 0.00 0.00 0.00 0.00
0.00 0.00 0.00 0.00 0.00 0.00 0.01 0.02 0.02 0.02 0.01 0.01 0.03 0.03 0.04 0.04 0.04 0.05 0.06 0.05 0.04 0.03 0.03 0.03 0.03 0.03 0.03 0.04 0.05 0.04 0.04 0.02 0.01 0.01 0.01 0.01 0.01 0.01
0.01 0.01 0.01 0.00 0.00 0.00 0.01 0.02 0.02 0.01 0.01 0.03 0.04 0.05 0.05 0.04 0.04 0.05 0.05 0.05 0.05 0.04 0.04 0.05 0.04 0.04 0.04 0.02 0.03 0.04 0.05 0.04 0.03 0.03 0.02 0.02 0.02 0.03
0.01 0.01 0.01 0.00 0.00 0.00 0.01 0.01 0.01 0.01 0.03 0.05 0.05 0.05 0.04 0.04 0.03 0.03 0.04 0.04 0.04 0.04 0.04 0.05 0.05 0.05 0.04 0.03 0.03 0.03 0.03 0.03 0.03 0.04 0.04 0.03 0.03 0.03
0.01 0.01 0.00 0.00 0.01 0.02 0.01 0.01 0.02 0.04 0.05 0.05 0.05 0.05 0.05 0.04 0.03 0.03 0.03 0.03 0.03 0.03 0.03 0.04 0.05 0.05 0.05 0.05 0.04 0.03 0.03 0.02 0.03 0.04 0.04 0.04 0.03 0.03
0.01 0.01 0.01 0.01 0.01 0.01 0.02 0.03 0.04 0.05 0.05 0.06 0.06 0.05 0.04 0.03 0.03 0.03 0.03 0.02 0.02 0.02 0.02 0.03 0.04 0.04 0.04 0.04 0.05 0.05 0.05 0.05 0.04 0.05 0.06 0.06 0.05 0.04
0.00 0.01 0.02 0.01 0.01 0.01 0.02 0.02 0.04 0.05 0.05 0.05 0.05 0.04 0.03 0.03 0.03 0.03 0.02 0.02 0.02 0.02 0.02 0.03 0.04 0.05 0.05 0.04 0.05 0.05 0.05 0.06 0.07 0.07 0.07 0.08 0.07 0.06
0.01 0.02 0.01 0.01 0.01 0.02 0.02 0.02 0.02 0.03 0.04 0.05 0.05 0.04 0.04 0.03 0.03 0.02 0.02 0.03 0.02 0.02 0.02 0.03 0.03 0.03 0.03 0.03 0.08 0.10 0.08 0.09 0.10 0.09 0.08 0.09 0.10 0.08
0.01 0.01 0.01 0.01 0.01 0.02 0.02 0.02 0.02 0.02 0.03 0.04 0.04 0.04 0.04 0.03 0.02 0.02 0.02 0.02 0.02 0.02 0.02 0.02 0.01 0.02 0.02 0.04 0.09 0.15 0.12 0.10 0.09 0.08 0.08 0.08 0.09 0.09
0.01 0.01 0.01 0.02 0.02 0.02 0.02 0.01 0.01 0.01 0.02 0.03 0.03 0.03 0.03 0.03 0.02 0.02 0.02 0.02 0.02 0.02 0.02 0.01 0.02 0.03 0.03 0.05 0.11 0.16 0.15 0.08 0.06 0.07 0.09 0.09 0.10 0.10
0.01 0.01 0.01 0.02 0.02 0.02 0.01 0.01 0.01 0.01 0.01 0.01 0.02 0.02 0.02 0.02 0.02 0.02 0.02 0.01 0.01 0.01 0.02 0.03 0.03 0.03 0.02 0.02 0.07 0.13 0.16 0.18 0.14 0.11 0.11 0.10 0.09 0.08
0.01 0.01 0.01 0.01 0.01 0.01 0.01 0.01 0.01 0.01 0.01 0.00 0.01 0.01 0.01 0.01 0.01 0.01 0.01 0.01 0.01 0.01 0.02 0.02 0.02 0.01 0.00 0.01 0.06 0.12 0.14 0.13 0.14 0.15 0.15 0.11 0.07 0.07
0.01 0.00 0.01 0.01 0.01 0.01 0.00 0.00 0.00 0.01 0.00 0.00 0.00 0.00 0.01 0.00 0.01 0.01 0.01 0.00 0.00 0.01 0.01 0.01 0.01 0.00 0.00 0.01 0.02 0.03 0.04 0.04 0.03 0.05 0.11 0.13 0.10 0.09

GEFSNE_prec_meanprec_036.txt.gz
QPF
0.01 0.01 0.01 0.01 0.00 0.00 0.00 0.00 0.00 0.00 0.00 0.00 0.00 0.00 0.00 0.00 0.00 0.00 0.00 0.00 0.00 0.00 0.00 0.00 0.00 0.01 0.01 0.01 0.01 0.01 0.01 0.00 0.00 0.01 0.01 0.01 0.01 0.02
0.00 0.00 0.00 0.00 0.00 0.00 0.00 0.00 0.00 0.00 0.00 0.00 0.00 0.00 0.00 0.00 0.00 0.00 0.00 0.00 0.00 0.00 0.01 0.01 0.01 0.01 0.01 0.01 0.01 0.01 0.01 0.01 0.01 0.01 0.01 0.01 0.01 0.01
0.00 0.00 0.00 0.00 0.00 0.00 0.00 0.00 0.00 0.00 0.00 0.00 0.00 0.00 0.00 0.01 0.01 0.01 0.01 0.01 0.01 0.01 0.01 0.01 0.00 0.00 0.00 0.01 0.01 0.01 0.01 0.01 0.01 0.01 0.01 0.01 0.01 0.01
0.00 0.00 0.00 0.00 0.00 0.00 0.00 0.00 0.00 0.01 0.01 0.01 0.00 0.00 0.01 0.01 0.02 0.02 0.01 0.01 0.01 0.00 0.00 0.00 0.00 0.00 0.00 0.00 0.00 0.00 0.01 0.01 0.01 0.01 0.01 0.02 0.02 0.02
0.00 0.00 0.00 0.00 0.00 0.01 0.01 0.01 0.01 0.01 0.01 0.02 0.01 0.01 0.01 0.01 0.02 0.02 0.02 0.02 0.01 0.00 0.00 0.00 0.00 0.00 0.00 0.00 0.00 0.00 0.00 0.00 0.00 0.00 0.00 0.01 0.01 0.01
0.00 0.00 0.00 0.00 0.01 0.01 0.01 0.01 0.01 0.01 0.02 0.02 0.01 0.01 0.01 0.01 0.02 0.03 0.02 0.02 0.02 0.01 0.01 0.01 0.01 0.01 0.01 0.00 0.00 0.00 0.00 0.00 0.00 0.00 0.00 0.00 0.00 0.00
0.00 0.00 0.01 0.01 0.00 0.00 0.00 0.00 0.01 0.02 0.02 0.02 0.02 0.01 0.01 0.02 0.03 0.03 0.03 0.02 0.02 0.01 0.02 0.02 0.02 0.02 0.02 0.02 0.02 0.01 0.00 0.00 0.00 0.00 0.00 0.00 0.00 0.00
0.01 0.01 0.01 0.01 0.00 0.00 0.01 0.01 0.01 0.02 0.03 0.03 0.03 0.03 0.03 0.04 0.04 0.04 0.04 0.04 0.03 0.02 0.03 0.02 0.02 0.03 0.03 0.04 0.03 0.01 0.01 0.00 0.00 0.00 0.00 0.00 0.00 0.00
0.01 0.01 0.01 0.01 0.01 0.01 0.01 0.01 0.01 0.01 0.02 0.04 0.04 0.04 0.05 0.05 0.05 0.04 0.04 0.05 0.04 0.03 0.05 0.03 0.03 0.04 0.03 0.02 0.01 0.00 0.00 0.00 0.00 0.00 0.00 0.00 0.00 0.00
0.01 0.01 0.01 0.01 0.02 0.00 0.00 0.00 0.01 0.02 0.03 0.04 0.05 0.05 0.04 0.04 0.04 0.04 0.04 0.04 0.03 0.03 0.06 0.05 0.03 0.03 0.02 0.04 0.03 0.01 0.00 0.00 0.00 0.00 0.00 0.00 0.01 0.01
0.01 0.01 0.01 0.01 0.01 0.00 0.00 0.01 0.01 0.02 0.02 0.01 0.01 0.02 0.03 0.03 0.03 0.03 0.04 0.05 0.04 0.03 0.05 0.04 0.02 0.02 0.02 0.04 0.05 0.02 0.01 0.01 0.00 0.00 0.00 0.00 0.00 0.01
0.00 0.01 0.01 0.00 0.00 0.00 0.00 0.01 0.01 0.02 0.01 0.02 0.04 0.06 0.07 0.06 0.04 0.04 0.06 0.06 0.06 0.04 0.04 0.03 0.02 0.02 0.02 0.02 0.04 0.04 0.04 0.04 0.02 0.01 0.00 0.00 0.00 0.01
0.01 0.01 0.02 0.00 0.00 0.00 0.00 0.01 0.02 0.01 0.01 0.04 0.07 0.07 0.06 0.05 0.05 0.05 0.06 0.07 0.06 0.06 0.04 0.04 0.04 0.03 0.04 0.02 0.02 0.03 0.05 0.05 0.04 0.03 0.02 0.01 0.01 0.01
0.02 0.02 0.02 0.00 0.00 0.00 0.00 0.01 0.00 0.01 0.05 0.08 0.08 0.06 0.05 0.04 0.04 0.04 0.04 0.05 0.05 0.05 0.04 0.04 0.05 0.05 0.06 0.04 0.02 0.02 0.02 0.04 0.05 0.05 0.05 0.04 0.01 0.01
0.02 0.01 0.00 0.00 0.00 0.02 0.02 0.00 0.02 0.07 0.08 0.08 0.07 0.06 0.05 0.04 0.04 0.03 0.03 0.03 0.03 0.03 0.02 0.03 0.04 0.06 0.07 0.05 0.04 0.03 0.03 0.03 0.03 0.04 0.06 0.06 0.04 0.02
0.01 0.01 0.01 0.01 0.02 0.03 0.04 0.06 0.09 0.09 0.06 0.07 0.07 0.06 0.05 0.04 0.03 0.03 0.02 0.02 0.02 0.02 0.02 0.02 0.03 0.05 0.05 0.04 0.04 0.05 0.06 0.06 0.05 0.05 0.06 0.08 0.07 0.06
0.00 0.01 0.04 0.04 0.04 0.04 0.04 0.05 0.06 0.06 0.06 0.07 0.06 0.05 0.04 0.03 0.03 0.02 0.02 0.02 0.02 0.02 0.02 0.02 0.02 0.03 0.04 0.03 0.04 0.05 0.07 0.08 0.08 0.07 0.08 0.09 0.09 0.09
0.01 0.02 0.03 0.02 0.02 0.03 0.03 0.03 0.04 0.05 0.06 0.06 0.06 0.05 0.04 0.03 0.03 0.02 0.02 0.02 0.02 0.02 0.02 0.02 0.02 0.02 0.03 0.03 0.06 0.08 0.07 0.08 0.09 0.09 0.09 0.09 0.10 0.09
0.02 0.03 0.03 0.02 0.03 0.03 0.03 0.03 0.04 0.05 0.06 0.06 0.05 0.05 0.04 0.03 0.02 0.02 0.01 0.01 0.02 0.02 0.02 0.02 0.01 0.01 0.02 0.03 0.04 0.08 0.08 0.07 0.07 0.07 0.07 0.08 0.09 0.09
0.03 0.03 0.03 0.03 0.04 0.04 0.04 0.04 0.04 0.05 0.05 0.04 0.04 0.03 0.03 0.02 0.02 0.01 0.01 0.01 0.02 0.02 0.02 0.01 0.01 0.02 0.03 0.04 0.06 0.07 0.08 0.07 0.06 0.07 0.07 0.07 0.07 0.08
0.03 0.02 0.03 0.04 0.04 0.05 0.06 0.06 0.05 0.04 0.04 0.03 0.02 0.02 0.02 0.01 0.01 0.01 0.01 0.01 0.01 0.02 0.02 0.02 0.02 0.02 0.02 0.01 0.04 0.06 0.07 0.09 0.08 0.06 0.06 0.06 0.06 0.06
0.02 0.02 0.03 0.04 0.05 0.05 0.04 0.04 0.03 0.03 0.02 0.02 0.02 0.02 0.01 0.01 0.01 0.01 0.01 0.01 0.01 0.01 0.02 0.02 0.02 0.01 0.00 0.01 0.03 0.06 0.06 0.05 0.05 0.06 0.08 0.07 0.04 0.05
0.01 0.02 0.03 0.05 0.04 0.03 0.02 0.01 0.01 0.01 0.02 0.02 0.01 0.01 0.01 0.00 0.00 0.00 0.00 0.00 0.01 0.01 0.01 0.02 0.01 0.01 0.01 0.01 0.02 0.03 0.04 0.04 0.02 0.03 0.08 0.10 0.08 0.07